Regional Weather Roundup
Issued by NWS Spokane, WA

Home | Current Version | Previous Version | Text Only | Print | Product List | Glossary On
Versions: 1 2 3 4 5 6 7 8 9 10 11 12 13 14 15 16 17 18 19 20 21 22 23 24 25 26 27 28 29 30 31 32 33 34 35 36 37 38 39 40 41 42 43 44 45 46 47 48 49 50
000
NZUS01 KOTX 031110
RWROTX
EASTERN WASHINGTON/NORTHERN IDAHO ROUNDUP
NATIONAL WEATHER SERVICE, SPOKANE WA
400 AM PDT MON AUG 03 2015

Note: "fair" indicated few or no clouds below 12,000 feet with no
significant weather and/or obstructions to visibility.

...NORTHEAST WASHINGTON AND NORTHERN IDAHO PANHANDLE...

CITY           SKY/WX    TMP DP  RH WIND       PRES   REMARKS
SPOKANE INTL   PTCLDY    71  25  17 SE7       29.80F
SPOKANE DOWNTO MOCLDY    66  44  45 NE5       29.80S SMOKE
COEUR D ALENE  PTCLDY    61  41  48 NE6       29.82S
DEER PARK      PTCLDY    52  34  50 CALM      29.81S HAZE
SANDPOINT      CLEAR     54  41  62 CALM      29.82S
BONNERS FERRY  FAIR      59  37  44 CALM      29.84S

...SOUTHEAST WASHINGTON AND SOUTHERN IDAHO PANHANDLE...

CITY           SKY/WX    TMP DP  RH WIND       PRES   REMARKS
WALLA WALLA    PTCLDY    76  40  27 S6        29.77S
PULLMAN/MOSCOW PTCLDY    54  33  45 CALM      29.85S
LEWISTON       PTCLDY    73  29  19 CALM      29.77R
LOWELL           N/A     61  50  67 CALM      29.84S

...COLUMBIA BASIN...

CITY           SKY/WX    TMP DP  RH WIND       PRES   REMARKS
EPHRATA        PTCLDY    83  40  21 NW7       29.73F
MOSES LAKE     CLOUDY    71  44  37 CALM      29.74F
TRI CITIES     PTCLDY    68  53  58 CALM      29.73S
HERMISTON      PTCLDY    64  49  57 SE5       29.75S
PENDLETON      MOCLDY    68  35  29 SE8       29.80F

...EAST SLOPES CASCADES...

CITY           SKY/WX    TMP DP  RH WIND       PRES   REMARKS
THE DALLES     PTCLDY    76  53  44 NW15G22   29.79R
YAKIMA         PTCLDY    68  47  46 W6        29.78S
ELLENSBURG     MOCLDY    77  41  27 NW17      29.81F
WENATCHEE      MOCLDY    81  45  28 NW13      29.77F
OMAK           CLOUDY    80  38  22 NW12      29.77R

...SOUTHERN BRITISH COLUMBIA...

CITY           SKY/WX    TMP DP  RH WIND       PRES   REMARKS
PENTICTON      CLOUDY    72  45  37 NW7       29.79S
CRANBROOK      MOCLDY    64  39  39 VRB2      29.89S

...WESTERN MONTANA...

CITY           SKY/WX    TMP DP  RH WIND       PRES   REMARKS
MISSOULA       MOCLDY    59  37  44 CALM      29.92R

...NEIGHBORING CITIES...

CITY           SKY/WX    TMP DP  RH WIND       PRES   REMARKS
SEATTLE        CLOUDY    65  54  67 CALM      29.90S
CALGARY        PTCLDY    57  50  77 S7        29.92S



USA.gov is the U.S. government's official web portal to all federal, state and local government web resources and services.